Weather History for Rhinelander, WI

Change the Weather History Date:

Monday, May 27, 2013

  Actual Average Record
Temperature  
Mean Temperature 56 °F 56 °F  
Max Temperature 69 °F 68 °F 90 °F (1919)
Min Temperature 42 °F 44 °F 26 °F (2011)
Degree Days  
Heating Degree Days 9 9  
Month to date heating degree days 386 352  
Since 1 July heating degree days 8997 8852  
Cooling Degree Days 0 1  
Month to date cooling degree days 9 5  
Year to date cooling degree days 9 6  
Growing Degree Days 5 (Base 50)    
Moisture  
Dew Point 36 °F    
Average Humidity 53    
Maximum Humidity 76    
Minimum Humidity 29    
Precipitation  
Precipitation 0.00 in 0.12 in 1.48 in (2006)
Month to date precipitation 2.21 3.00  
Year to date precipitation 11.64 9.19  
Snow  
Snow 0.00 in - T in (1947)
Month to date snowfall 0.2  
Since 1 July snowfall 83.8  
Snow Depth 0.00 in    
Sea Level Pressure  
Sea Level Pressure 30.08 in    
Wind  
Wind Speed 11 mph (ESE)    
Max Wind Speed 23 mph    
Max Gust Speed 33 mph    
Visibility 10 miles    
Events      
T = Trace of Precipitation, MM = Missing Value Source: NWS Daily Summary

Daily Weather History Graph

Daily Weather History Graph

Search for Another Location

Airport:

Trip Planner

Search our weather history database for the weather conditions in past years. The results will help you decide how hot, cold, wet, or windy it might be!

Date:

Astronomy

May. 27, 2013 Rise Set
Actual Time 5:15 AM CDT 8:35 PM CDT
Civil Twilight 4:38 AM CDT 9:12 PM CDT
Nautical Twilight 3:51 AM CDT 9:59 PM CDT
Astronomical Twilight 2:51 AM CDT 11:00 PM CDT
Moon 11:10 PM CDT (5/27) 7:54 AM CDT (5/27)
Length of Visible Light 16h 33m
Length of Day
15h 20m
Waning Gibbous, 91% of the Moon is Illuminated
May 27
Waning Gibbous
May 31
Last Quarter
Jun 8
New
Jun 16
First Quarter
Jun 23
Full

Hourly Weather History & Observations

Time (CDT) Temp. Windchill Dew Point Humidity Pressure Visibility Wind Dir Wind Speed Gust Speed Precip Events Conditions
12:53 AM 44.1 °F 41.5 °F 36.0 °F 73% 30.22 in 10.0 mi SE 4.6 mph - N/A   Clear
1:53 AM 45.0 °F 41.8 °F 37.0 °F 74% 30.19 in 10.0 mi ESE 5.8 mph - N/A   Clear
2:53 AM 43.0 °F 40.3 °F 35.1 °F 74% 30.19 in 10.0 mi ESE 4.6 mph - N/A   Clear
3:53 AM 42.1 °F 39.2 °F 34.0 °F 73% 30.16 in 10.0 mi East 4.6 mph - N/A   Clear
4:53 AM 43.0 °F 40.3 °F 34.0 °F 71% 30.16 in 10.0 mi East 4.6 mph - N/A   Mostly Cloudy
5:53 AM 45.0 °F 41.2 °F 32.0 °F 60% 30.15 in 10.0 mi East 6.9 mph - N/A   Overcast
6:53 AM 48.0 °F - 30.9 °F 52% 30.16 in 10.0 mi East 9.2 mph - N/A   Overcast
7:53 AM 51.1 °F - 33.1 °F 50% 30.16 in 10.0 mi ESE 8.1 mph - N/A   Overcast
8:53 AM 57.0 °F - 34.0 °F 42% 30.12 in 10.0 mi SE 16.1 mph 24.2 mph N/A   Overcast
9:53 AM 63.0 °F - 34.0 °F 34% 30.10 in 10.0 mi ESE 16.1 mph - N/A   Overcast
10:53 AM 64.9 °F - 33.1 °F 31% 30.09 in 10.0 mi SSE 13.8 mph 24.2 mph N/A   Clear
11:53 AM 66.0 °F - 34.0 °F 30% 30.09 in 10.0 mi ESE 13.8 mph 24.2 mph N/A   Mostly Cloudy
12:53 PM 66.0 °F - 35.1 °F 32% 30.06 in 10.0 mi SE 18.4 mph 27.6 mph N/A   Scattered Clouds
1:53 PM 66.0 °F - 37.0 °F 34% 30.03 in 10.0 mi East 18.4 mph - N/A   Clear
2:53 PM 68.0 °F - 37.0 °F 32% 30.01 in 10.0 mi ESE 18.4 mph 32.2 mph N/A   Clear
3:53 PM 64.9 °F - 35.1 °F 33% 30.03 in 10.0 mi ESE 17.3 mph 25.3 mph N/A   Mostly Cloudy
4:53 PM 62.1 °F - 37.0 °F 39% 30.03 in 10.0 mi ESE 11.5 mph - N/A   Overcast
5:53 PM 61.0 °F - 37.9 °F 42% 30.01 in 10.0 mi SE 15.0 mph 18.4 mph N/A   Overcast
6:53 PM 57.9 °F - 39.0 °F 49% 30.01 in 10.0 mi SE 16.1 mph 21.9 mph N/A   Overcast
7:53 PM 57.0 °F - 39.9 °F 53% 29.99 in 10.0 mi ESE 9.2 mph - N/A   Overcast
8:53 PM 55.9 °F - 39.9 °F 55% 29.97 in 10.0 mi SE 9.2 mph - N/A   Overcast
9:53 PM 55.9 °F - 39.9 °F 55% 29.97 in 10.0 mi ESE 12.7 mph - N/A   Overcast
10:53 PM 55.0 °F - 39.0 °F 55% 29.96 in 10.0 mi ESE 6.9 mph - N/A   Overcast
11:53 PM 54.0 °F - 39.9 °F 59% 29.95 in 10.0 mi ESE 4.6 mph - N/A   Overcast